Custer, SD

2:33 AM MDT on April 23, 2018 (GMT -0600)
Custer County

Weather History for KCUT - August, 2013

Change the Weather History Date:

Monday, August 5, 2013

  Actual Average Record
Temperature  
Mean Temperature 66 °F 66 °F  
Max Temperature 79 °F 79 °F 94 °F (1960)
Min Temperature 53 °F 52 °F 35 °F (1980)
Degree Days  
Heating Degree Days 0 2  
Month to date heating degree days 12 10  
Since 1 June heating degree days 247 291  
Since 1 July heating degree days 54 71  
Cooling Degree Days 1 2  
Month to date cooling degree days 6 10  
Year to date cooling degree days 80 117  
Since 1 June cooling degree days 78 116  
Growing Degree Days 16 (Base 50)    
Moisture  
Dew Point 52 °F    
Average Humidity 66    
Maximum Humidity 93    
Minimum Humidity 39    
Precipitation  
Precipitation 0.24 in 0.07 in 1.31 in (2002)
Month to date precipitation 1.46 0.33  
Year to date precipitation 13.46 13.10  
Sea Level Pressure  
Sea Level Pressure 29.95 in    
Wind  
Wind Speed 5 mph (WNW)    
Max Wind Speed 18 mph    
Max Gust Speed 30 mph    
Visibility 9 miles    
Events Rain    
T = Trace of Precipitation, MM = Missing Value Source: NWS Daily Summary

Daily Weather History Graph

Daily Weather History Graph

Search for Another Location

Airport or City:

Astronomy

Aug. 05, 2013 Rise Set
Actual Time 5:48 AM MDT 8:12 PM MDT
Civil Twilight 5:15 AM MDT 8:44 PM MDT
Nautical Twilight 4:35 AM MDT 9:24 PM MDT
Astronomical Twilight 3:50 AM MDT 10:08 PM MDT
Moon 4:45 AM MDT (8/5) 7:12 PM MDT (8/5)
Length of Visible Light 15h 28m
Length of Day
14h 24m
Waning Crescent, 1% of the Moon is Illuminated
Aug 5
Waning Crescent
Aug 6
New
Aug 14
First Quarter
Aug 20
Full
Aug 28
Last Quarter

Hourly Weather History & Observations

Time (MDT) Temp. Dew Point Humidity Pressure Visibility Wind Dir Wind Speed Gust Speed Precip Events Conditions
12:53 AM 62.1 °F 51.1 °F 67% 29.94 in 10.0 mi North 10.4 mph 25.3 mph 0.00 in Rain Light Rain
1:53 AM 61.0 °F 46.9 °F 60% 29.90 in 10.0 mi NW 4.6 mph - 0.00 in   Scattered Clouds
2:44 AM 57.2 °F 51.8 °F 82% 30.17 in 1.8 mi Variable 4.6 mph 21.9 mph 0.11 in Rain Heavy Rain
2:51 AM 57.2 °F 50.0 °F 77% 30.18 in 3.0 mi WNW 10.4 mph 26.5 mph 0.17 in Rain Rain
2:53 AM 57.9 °F 50.0 °F 75% 29.97 in 4.0 mi NW 10.4 mph 26.5 mph 0.18 in Rain Rain
3:53 AM 55.9 °F 51.1 °F 84% 29.94 in 10.0 mi North 9.2 mph - 0.06 in   Scattered Clouds
4:53 AM 54.0 °F 52.0 °F 93% 29.93 in 10.0 mi Calm Calm - N/A   Scattered Clouds
5:53 AM 53.1 °F 50.0 °F 89% 29.96 in 10.0 mi NNW 4.6 mph - N/A   Clear
6:53 AM 55.9 °F 50.0 °F 80% 29.96 in 10.0 mi NNW 4.6 mph - N/A   Clear
7:53 AM 63.0 °F 54.0 °F 72% 29.96 in 10.0 mi Calm Calm - N/A   Clear
8:53 AM 66.9 °F 55.0 °F 66% 29.97 in 10.0 mi Variable 4.6 mph - N/A   Clear
9:53 AM 69.1 °F 55.0 °F 61% 29.98 in 10.0 mi Variable 3.5 mph - N/A   Clear
10:53 AM 70.0 °F 54.0 °F 57% 29.98 in 10.0 mi Variable 3.5 mph - N/A   Clear
11:53 AM 73.0 °F 52.0 °F 48% 29.97 in 10.0 mi WSW 4.6 mph - N/A   Clear
2:53 PM 77.0 °F 53.1 °F 43% 29.91 in 10.0 mi WSW 6.9 mph - N/A   Clear
3:53 PM 78.1 °F 52.0 °F 40% 29.90 in 10.0 mi SW 8.1 mph - N/A   Clear
4:53 PM 75.0 °F 54.0 °F 48% 29.89 in 10.0 mi South 8.1 mph - N/A   Clear
5:53 PM 72.0 °F 57.9 °F 61% 29.90 in 10.0 mi SSW 5.8 mph - N/A   Clear
6:53 PM 64.0 °F 48.9 °F 58% 29.93 in 10.0 mi ENE 8.1 mph - N/A   Clear
7:53 PM 64.0 °F 48.9 °F 58% 29.88 in 10.0 mi Calm Calm - N/A   Clear
8:53 PM 60.1 °F 50.0 °F 69% 29.89 in 10.0 mi Calm Calm - N/A   Clear
9:53 PM 60.1 °F 50.0 °F 69% 29.89 in 10.0 mi Calm Calm - N/A   Overcast
10:53 PM 57.9 °F 51.1 °F 78% 29.87 in 10.0 mi North 3.5 mph - N/A   Clear
11:53 PM 63.0 °F 54.0 °F 72% 29.83 in 10.0 mi Calm Calm - N/A   Mostly Cloudy